This is the latest recevied weather packets stored in our database for station/object LU3HGB-WX. If no packets are shown the sender has not sent any weather packets the latest 10 day(s).
| Time | Temp. | Humidity | Pressure | Rain* | Wind** | Luminosity | Snow |
|---|---|---|---|---|---|---|---|
| 1788292059 | 24.44° C | 18% | 1017 hPa | 0 mm | - | 473 W/m² | - |
| 1788291761 | 24.44° C | 21% | 1017 hPa | 0 mm | - | 493 W/m² | - |
| 1788291460 | 24.44° C | 20% | 1017 hPa | 0 mm | - | 514 W/m² | - |
| 1788291162 | 24.44° C | 19% | 1017 hPa | 0 mm | - | 533 W/m² | - |
| 1788290860 | 24.44° C | 23% | 1017 hPa | 0 mm | - | 554 W/m² | - |
| 1788290559 | 24.44° C | 26% | 1017 hPa | 0 mm | - | 569 W/m² | - |
| 1788290259 | 24.44° C | 28% | 1017 hPa | 0 mm | - | 588 W/m² | - |
| 1788289960 | 23.89° C | 28% | 1017 hPa | 0 mm | - | 607 W/m² | - |
| 1788289659 | 23.89° C | 29% | 1017 hPa | 0 mm | - | 624 W/m² | - |
| 1788289389 | 23.89° C | 29% | 1017 hPa | 0 mm | - | 642 W/m² | - |
| 1788289060 | 23.89° C | 29% | 1017 hPa | 0 mm | - | 661 W/m² | - |
| 1788288759 | 24.44° C | 27% | 1017 hPa | 0 mm | - | 673 W/m² | - |
| 1788288460 | 23.89° C | 29% | 1017 hPa | 0 mm | - | 689 W/m² | - |
| 1788288161 | 23.89° C | 28% | 1017 hPa | 0 mm | - | 706 W/m² | - |
| 1788287860 | 24.44° C | 29% | 1017 hPa | 0 mm | - | 722 W/m² | - |
| 1788287559 | 24.44° C | 28% | 1017 hPa | 0 mm | - | 736 W/m² | - |
| 1788287260 | 23.89° C | 30% | 1017 hPa | 0 mm | - | 754 W/m² | - |
| 1788286960 | 23.33° C | 30% | 1017 hPa | 0 mm | - | 767 W/m² | - |
| 1788286661 | 23.33° C | 30% | 1018 hPa | 0 mm | - | 783 W/m² | - |
| 1788286360 | 23.33° C | 31% | 1018 hPa | 0 mm | - | 794 W/m² | - |
| 1788286060 | 23.33° C | 30% | 1018 hPa | 0 mm | - | 809 W/m² | - |
| 1788285760 | 23.33° C | 30% | 1018 hPa | 0 mm | - | 813 W/m² | - |
| 1788285461 | 23.33° C | 30% | 1018 hPa | 0 mm | - | 831 W/m² | - |
| 1788285161 | 23.33° C | 32% | 1018 hPa | 0 mm | - | 839 W/m² | - |
| 1788284860 | 23.33° C | 30% | 1018 hPa | 0 mm | - | 849 W/m² | - |
* Rain latest hour (hover to see other rain measurements)
** Current wind speed in m/s (hover to see current wind gust speed)